* Astronomy

Members Login
Username 
 
Password 
    Remember Me  
Post Info TOPIC: Asteroid 2009 FT32


L

Posts: 131433
Date:
Asteroid 2009 FT32
Permalink  
 


Orbital elements:
2009 FT32 Earth MOID = 0.0869 AU
Epoch 2009 June 18.0 TT = JDT 2455000.5 MPC
M 7.73483 (2000.0) P Q
n 0.22405616 Peri. 62.78111 -0.45268878 +0.89166822
a 2.6847146 Node 180.30606 -0.86213316 -0.43792446
e 0.6350642 Incl. 8.67470 -0.22759458 -0.11467321
P 4.40 H 23.8 G 0.15 U 9

MPEC 2009 - F103


__________________
Page 1 of 1  sorted by
 
Quick Reply

Please log in to post quick replies.



Create your own FREE Forum
Report Abuse
Powered by ActiveBoard